Flag for Turkey Weather past 2 weeks in Istanbul, Turkey

57 °F

Sprinkles. Partly cloudy.

Feels Like: 56 °F
Forecast: 57 / 60 °F
Wind: 7 mph from North

Location: Istanbul Ataturk Airport

Current Time: Nov 27, 2015 at 7:26:20 AM

Latest Report: Nov 27, 2015 at 6:50 AM

Visibility: 4 mi

Pressure: 29.83 "Hg

Humidity: 88%

Dew point: 54 °F

Location of IstanbulLocation

Historic Weather in Istanbul — Graph


Istanbul temperature yesterday

Maximum temperature yesterday: 64 °F (at 8:50 PM)
Minimum temperature yesterday: 57 °F (at 5:50 AM)
Average temperature yesterday: 60 °F

Past Weeks' High & Low Weather Summary

High70 °F (Nov 22, 11:50 AM)100% (Nov 13, 2:20 AM)30.39 "Hg (Nov 13, 2:20 AM)
Low48 °F (Nov 16, 3:50 AM)42% (Nov 26, 2:50 AM)29.59 "Hg (Nov 26, 6:50 AM)
Average60 °F72%30.03 "Hg
* Reported Nov 12 5:20 AM — Nov 27 5:20 AM, Istanbul, Weather by CustomWeather, © 2015

Note: Actual official high and low records may vary slightly from our data, if they occured in-between our weather recording intervals... More about our weather records


Istanbul weather history for previous 24 hours

Time TempWeatherWind HumidityBarometerVisibility
5:20 AM
Fri, Nov 27
57 °FSprinkles. Partly cloudy.8 mph88%29.83 "Hg4 mi
4:50 AM57 °FSprinkles. Partly cloudy.7 mph88%29.83 "Hg4 mi
4:20 AM57 °FPassing clouds.12 mph88%29.80 "Hg5 mi
3:50 AM57 °FPassing clouds.12 mph88%29.80 "Hg4 mi
3:20 AM57 °FFog.10 mph88%29.80 "Hg2 mi
2:50 AM55 °FFog.14 mph94%29.80 "Hg2 mi
2:20 AM57 °FPassing clouds.12 mph82%29.80 "Hg4 mi
1:50 AM61 °FPassing clouds.7 mph72%29.77 "Hg4 mi
1:20 AM59 °FPassing clouds.3 mph82%29.77 "HgN/A
12:50 AM61 °FPassing clouds.3 mph77%29.77 "HgN/A
11:50 PM
Thu, Nov 26
61 °FPassing clouds.5 mph77%29.77 "HgN/A
11:20 PM63 °FPartly cloudy.3 mph73%29.77 "HgN/A
10:50 PM61 °FPartly cloudy.1 mph77%29.74 "HgN/A
10:20 PM63 °FPartly cloudy.6 mph77%29.74 "HgN/A
9:50 PM63 °FPartly cloudy.6 mph73%29.74 "HgN/A
9:20 PM63 °FPartly cloudy.6 mph73%29.74 "HgN/A
8:50 PM64 °FPartly cloudy.6 mph68%29.71 "HgN/A
8:20 PM63 °FPartly cloudy.3 mph73%29.71 "HgN/A
7:50 PM63 °FPartly cloudy.5 mph77%29.71 "HgN/A
7:20 PM63 °FPassing clouds.5 mph77%29.71 "HgN/A
6:50 PM61 °FPassing clouds.6 mph83%29.68 "HgN/A
6:20 PM61 °FPassing clouds.3 mph83%29.68 "HgN/A
5:50 PM61 °FPartly cloudy.5 mph83%29.65 "HgN/A
5:20 PM59 °FPassing clouds.3 mph82%29.65 "HgN/A
4:50 PM59 °FSprinkles. Passing clouds.5 mph88%29.65 "HgN/A
4:20 PM59 °FThunderstorms. Partly sunny.8 mph88%29.65 "Hg4 mi
3:50 PM61 °FThunderstorms. Partly sunny.3 mph83%29.62 "Hg4 mi
3:20 PM61 °FBroken clouds.5 mph83%29.62 "HgN/A
2:50 PM59 °FPartly sunny.6 mph88%29.62 "HgN/A
2:20 PM61 °FPartly sunny.9 mph83%29.62 "HgN/A
1:50 PM59 °FPartly sunny.7 mph94%29.59 "Hg4 mi
1:20 PM57 °FThunderstorms. Broken clouds.9 mph94%29.62 "Hg2 mi
12:50 PM59 °FThunderstorms. Partly sunny.10 mph82%29.59 "Hg1 mi
12:20 PM59 °FThunderstorms. Partly sunny.7 mph77%29.62 "Hg4 mi
11:50 AM59 °FRain showers. Broken clouds.1 mph82%29.59 "Hg3 mi
11:20 AM59 °FPartly sunny.5 mph82%29.59 "HgN/A
10:50 AM59 °FSprinkles. Partly sunny.5 mph77%29.59 "Hg5 mi
10:20 AM61 °FSprinkles. Broken clouds.8 mph72%29.59 "HgN/A
9:58 AM61 °FSprinkles. Broken clouds.10 mph72%29.59 "Hg5 mi
9:20 AM61 °FBroken clouds.14 mph72%29.59 "HgN/A
8:50 AM61 °FBroken clouds.12 mph72%29.59 "HgN/A
8:20 AM59 °FScattered clouds.16 mph72%29.59 "HgN/A
7:50 AM59 °FScattered clouds.17 mph77%29.59 "HgN/A
7:20 AM59 °FBroken clouds.16 mph77%29.59 "HgN/A
Weather by CustomWeather, © 2015

See weather overviewHow to use our weather pages